FW6013 Weather Reports


time (UTC)temp
F
wind
direction
speed
knots
gust
knots
rain 1hr
in
rain 24hr
in
rain mn
in
humidity
%
barometer
mb
20260901192504 76 55 0.0 1.7 0.00 0.00 0.00 58 1016.1
20260901192004 74 65 0.9 3.5 0.00 0.00 0.00 59 1016.2
20260901191505 74 74 1.7 5.2 0.00 0.00 0.00 60 1016.1
20260901191004 73 90 0.0 5.2 0.00 0.00 0.00 61 1015.9
20260901190505 74 105 1.7 3.5 0.00 0.00 0.00 61 1016.0
20260901190004 73 130 0.9 3.5 0.00 0.00 0.00 61 1016.0
20260901185504 74 178 0.9 3.5 0.00 0.00 0.00 61 1016.1
20260901184005 72 136 0.0 3.5 0.00 0.00 0.00 64 1016.2
20260901183505 72 111 0.9 6.1 0.00 0.00 0.00 63 1016.1
20260901183005 72 88 1.7 6.1 0.00 0.00 0.00 64 1016.1
20260901182504 73 78 1.7 3.5 0.00 0.00 0.00 62 1016.1
20260901182004 73 110 1.7 3.5 0.00 0.00 0.00 63 1016.1
20260901181504 72 141 0.9 3.5 0.00 0.00 0.00 64 1016.1
20260901180504 72 344 0.9 6.1 0.00 0.00 0.00 65 1016.0
20260901180004 70 310 3.5 6.1 0.00 0.00 0.00 69 1016.2
20260901175504 71 168 1.7 5.2 0.00 0.00 0.00 68 1016.1
20260901175005 69 162 1.7 5.2 0.00 0.00 0.00 70 1016.3
20260901174505 70 164 1.7 5.2 0.00 0.00 0.00 70 1016.3
20260901172004 68 122 1.7 6.1 0.00 0.00 0.00 73 1016.9
20260901171504 67 157 2.6 6.1 0.00 0.00 0.00 74 1017.1
20260901170505 66 146 2.6 7.0 0.00 0.00 0.00 77 1017.2
20260901170005 68 147 2.6 7.0 0.00 0.00 0.00 73 1017.2
20260901165005 66 147 6.1 7.0 0.00 0.00 0.00 76 1017.4
20260901164505 67 139 1.7 7.0 0.00 0.00 0.00 75 1017.4
20260901163504 65 139 4.3 7.0 0.00 0.00 0.00 79 1017.4
20260901162505 66 159 1.7 7.8 0.00 0.00 0.00 78 1017.7
20260901162005 65 185 2.6 7.8 0.00 0.00 0.00 79 1018.0
20260901161504 66 174 2.6 7.8 0.00 0.00 0.00 77 1017.9
20260901161004 65 168 1.7 7.0 0.00 0.00 0.00 80 1018.2
20260901160505 64 152 3.5 7.8 0.00 0.00 0.00 80 1018.4
20260901160005 64 133 3.5 7.8 0.00 0.00 0.00 79 1018.3
20260901155005 63 134 3.5 9.6 0.00 0.00 0.00 81 1018.5
20260901154505 64 156 2.6 7.8 0.00 0.00 0.00 80 1018.5
20260901154005 64 159 1.7 6.1 0.00 0.00 0.00 80 1018.7
20260901153004 63 149 4.3 7.8 0.00 0.00 0.00 82 1019.0
20260901151504 64 149 3.5 7.0 0.00 0.00 0.00 81 1018.9
20260901151005 63 161 3.5 7.0 0.00 0.00 0.00 82 1019.0
20260901150505 63 148 2.6 9.6 0.00 0.00 0.00 81 1019.0
20260901150005 62 139 2.6 9.6 0.00 0.00 0.00 83 1019.2
20260901145504 63 130 7.0 9.6 0.00 0.00 0.00 80 1019.2
20260901145004 64 130 3.5 7.8 0.00 0.00 0.00 80 1019.2
20260901144504 63 150 3.5 7.0 0.00 0.00 0.00 81 1019.1
20260901143504 63 179 2.6 6.1 0.00 0.00 0.00 82 1019.3
20260901142505 63 207 3.5 9.6 0.00 0.00 0.00 80 1019.2
20260901141505 64 182 1.7 7.8 0.00 0.00 0.00 80 1019.1
20260901141004 64 181 3.5 7.8 0.00 0.00 0.00 80 1019.1
20260901140504 63 186 3.5 7.0 0.00 0.00 0.00 82 1019.1
20260901140004 63 206 3.5 6.1 0.00 0.00 0.00 84 1019.2
20260901135504 63 205 3.5 7.0 0.00 0.00 0.00 84 1019.1
20260901135004 63 192 2.6 7.0 0.00 0.00 0.00 85 1018.9
20260901134505 63 188 4.3 7.0 0.00 0.00 0.00 84 1019.1
20260901134005 64 172 3.5 7.0 0.00 0.00 0.00 82 1019.0
20260901133004 63 182 4.3 9.6 0.00 0.00 0.00 82 1018.7
20260901132504 63 181 4.3 7.0 0.00 0.00 0.00 83 1018.9
20260901131505 62 186 3.5 7.0 0.00 0.00 0.00 86 1019.0
20260901131004 62 193 3.5 7.0 0.00 0.00 0.00 86 1018.7
20260901124505 59 201 3.5 6.1 0.00 0.00 0.00 92 1018.4
20260901124005 59 199 1.7 6.1 0.00 0.00 0.00 93 1018.2
20260901123505 58 203 3.5 6.1 0.00 0.00 0.00 94 1018.2
20260901122504 58 174 2.6 5.2 0.00 0.00 0.00 96 1018.3
20260901122004 58 163 1.7 5.2 0.00 0.00 0.00 96 1017.9
20260901121505 58 165 3.5 6.1 0.00 0.00 0.00 96 1017.9
20260901121005 57 167 1.7 7.0 0.00 0.00 0.00 96 1017.8
20260901120504 57 174 4.3 7.0 0.00 0.00 0.00 96 1017.8
20260901120004 58 182 2.6 5.2 0.00 0.00 0.00 96 1017.7
20260901115505 57 176 1.7 6.1 0.00 0.00 0.00 96 1017.6
20260901115005 57 177 1.7 6.1 0.00 0.00 0.00 96 1017.5
20260901113505 57 177 1.7 5.2 0.00 0.00 0.00 96 1017.5
20260901112504 57 163 1.7 6.1 0.00 0.00 0.00 96 1017.5
20260901112005 57 170 2.6 6.1 0.00 0.00 0.00 96 1017.3
20260901111504 57 171 3.5 5.2 0.00 0.00 0.00 96 1017.1
20260901110505 57 190 1.7 5.2 0.00 0.00 0.00 96 1017.2
20260901110005 57 172 0.9 5.2 0.00 0.00 0.00 96 1017.0
20260901105505 57 170 1.7 5.2 0.00 0.00 0.00 96 1016.9
20260901105004 57 179 1.7 5.2 0.00 0.00 0.00 96 1016.9
20260901104505 57 177 1.7 3.5 0.00 0.00 0.00 96 1017.0
20260901104005 57 177 2.6 5.2 0.00 0.00 0.00 96 1017.0
20260901103505 57 166 2.6 5.2 0.00 0.00 0.00 96 1016.7
20260901103005 57 154 0.9 3.5 0.00 0.00 0.00 96 1016.8
20260901102505 57 170 2.6 5.2 0.00 0.00 0.00 96 1016.8
20260901101504 57 167 1.7 6.1 0.00 0.00 0.00 96 1016.8
20260901101004 57 170 1.7 6.1 0.00 0.00 0.00 96 1016.4
20260901100005 57 166 1.7 3.5 0.00 0.00 0.00 96 1016.4
20260901095505 57 169 1.7 3.5 0.00 0.00 0.00 96 1016.3
20260901095005 57 166 1.7 3.5 0.00 0.00 0.00 96 1016.3
20260901094504 57 160 1.7 5.2 0.00 0.00 0.00 96 1016.2
20260901094004 57 152 1.7 5.2 0.00 0.00 0.00 96 1016.2
20260901093504 57 148 2.6 5.2 0.00 0.00 0.00 96 1016.1
20260901093005 57 160 2.6 3.5 0.00 0.00 0.00 96 1016.0
20260901092505 58 169 1.7 3.5 0.00 0.00 0.00 96 1015.8
20260901092005 58 167 1.7 7.0 0.00 0.00 0.00 96 1015.8
20260901091505 58 172 2.6 7.0 0.00 0.00 0.00 96 1016.1
20260901091004 58 178 4.3 7.0 0.00 0.00 0.00 96 1015.9
20260901090005 58 176 1.7 6.1 0.00 0.00 0.00 95 1015.8
20260901085005 58 186 3.5 7.0 0.00 0.00 0.00 95 1015.8
20260901084505 58 188 3.5 7.0 0.00 0.00 0.00 95 1015.8
20260901083504 58 178 3.5 7.8 0.00 0.00 0.00 95 1015.7
20260901083004 58 184 3.5 7.8 0.00 0.00 0.00 95 1015.9
20260901082504 58 183 2.6 7.0 0.00 0.00 0.00 94 1015.7
20260901082004 59 190 3.5 7.0 0.00 0.00 0.00 94 1015.8
20260901080505 59 194 3.5 7.0 0.00 0.00 0.00 93 1015.7
20260901080005 59 183 3.5 6.1 0.00 0.00 0.00 94 1015.7
20260901075505 60 190 1.7 6.1 0.00 0.00 0.00 94 1015.6
20260901075004 60 182 1.7 3.5 0.00 0.00 0.00 94 1015.6
20260901074004 60 187 1.7 6.1 0.00 0.00 0.00 94 1015.4
20260901073504 60 187 3.5 6.1 0.00 0.00 0.00 94 1015.6
20260901073005 60 190 3.5 6.1 0.00 0.00 0.00 94 1015.5
20260901072005 60 189 1.7 3.5 0.00 0.00 0.00 94 1015.4
20260901071505 60 196 1.7 3.5 0.00 0.00 0.00 94 1015.6
20260901071005 60 210 1.7 3.5 0.00 0.00 0.00 94 1015.4
20260901070505 60 216 1.7 3.5 0.00 0.00 0.00 94 1015.3
20260901070005 60 207 1.7 3.5 0.00 0.00 0.00 94 1015.5
20260901065505 60 192 0.9 3.5 0.00 0.00 0.00 94 1015.5
20260901065004 60 183 1.7 3.5 0.00 0.00 0.00 94 1015.4
20260901064005 60 179 1.7 5.2 0.00 0.00 0.00 94 1015.4
20260901063504 60 165 1.7 5.2 0.00 0.00 0.00 94 1015.5
20260901062504 61 162 1.7 5.2 0.00 0.00 0.00 94 1015.7
20260901062004 61 164 1.7 5.2 0.00 0.00 0.00 94 1015.7
20260901061505 61 169 1.7 3.5 0.00 0.00 0.00 94 1015.7
20260901061005 61 166 1.7 5.2 0.00 0.00 0.00 94 1015.5
20260901060505 61 176 1.7 5.2 0.00 0.00 0.00 94 1015.6
20260901060004 61 183 2.6 7.0 0.00 0.00 0.00 94 1015.5
20260901055504 61 171 3.5 7.0 0.00 0.00 0.00 94 1015.6
20260901055005 61 162 1.7 6.1 0.00 0.00 0.00 94 1015.4
20260901054505 61 167 3.5 6.1 0.00 0.00 0.00 94 1015.5
20260901054005 61 172 2.6 5.2 0.00 0.00 0.00 94 1015.7
20260901053504 61 175 1.7 5.2 0.00 0.00 0.00 94 1015.8
20260901053004 61 188 3.5 6.1 0.00 0.00 0.00 93 1015.8
20260901052504 61 195 2.6 7.0 0.00 0.00 0.00 93 1015.7
20260901052005 61 187 1.7 7.0 0.00 0.00 0.00 93 1015.8
20260901051505 61 185 1.7 7.0 0.00 0.00 0.00 93 1016.0
20260901050504 61 187 3.5 7.0 0.00 0.00 0.00 92 1015.9
20260901050005 61 193 3.5 7.0 0.00 0.00 0.00 92 1016.1
20260901045505 61 192 3.5 7.0 0.00 0.00 0.00 91 1016.1
20260901045005 62 185 2.6 6.1 0.00 0.00 0.00 91 1016.0
20260901044506 62 185 3.5 7.8 0.00 0.00 0.00 90 1015.9
20260901044005 62 186 3.5 7.8 0.00 0.00 0.00 89 1015.8
20260901043004 62 177 3.5 6.1 0.00 0.00 0.00 87 1015.7
20260901042505 62 190 2.6 6.1 0.00 0.00 0.00 87 1015.6
20260901042005 62 185 1.7 6.1 0.00 0.00 0.00 87 1015.3
20260901041504 62 175 1.7 6.1 0.00 0.00 0.00 87 1015.5
20260901035504 62 187 1.7 7.0 0.00 0.00 0.00 84 1015.2
20260901035005 63 183 3.5 7.0 0.00 0.00 0.00 83 1015.6
20260901034504 63 164 2.6 7.0 0.00 0.00 0.00 80 1015.8
20260901034004 63 164 1.7 7.0 0.00 0.00 0.00 79 1015.8
20260901033004 63 175 3.5 5.2 0.00 0.00 0.00 80 1015.4
20260901031004 63 155 3.5 6.1 0.00 0.00 0.00 83 1015.3
20260901030504 63 148 3.5 9.6 0.00 0.00 0.00 83 1015.2
20260901030006 63 156 2.6 9.6 0.00 0.00 0.00 82 1015.6
20260901025504 63 154 2.6 6.1 0.00 0.00 0.00 82 1015.4
20260901025004 63 128 2.6 7.8 0.00 0.00 0.00 82 1015.6
20260901024504 63 111 2.6 7.8 0.00 0.00 0.00 83 1015.6
20260901024005 63 122 3.5 6.1 0.00 0.00 0.00 84 1015.6
20260901023505 63 142 1.7 7.0 0.00 0.00 0.00 84 1015.8
20260901023005 63 141 2.6 7.0 0.00 0.00 0.00 83 1015.8
20260901022504 63 137 3.5 7.0 0.00 0.00 0.00 83 1015.9
20260901022004 63 148 1.7 6.1 0.00 0.00 0.00 83 1015.9
20260901021505 63 157 3.5 5.2 0.00 0.00 0.00 83 1015.9
20260901021005 63 145 2.6 5.2 0.00 0.00 0.00 83 1015.8
20260901020505 63 140 1.7 3.5 0.00 0.00 0.00 84 1015.8
20260901020004 63 157 2.6 3.5 0.00 0.00 0.00 84 1015.7
20260901015005 63 175 1.7 3.5 0.00 0.00 0.00 85 1015.8
20260901014505 63 163 1.7 3.5 0.00 0.00 0.00 85 1015.9
20260901014004 63 159 2.6 3.5 0.00 0.00 0.00 85 1015.9
20260901013004 63 156 0.9 5.2 0.00 0.00 0.00 86 1015.8
20260901012505 63 154 1.7 5.2 0.00 0.00 0.00 86 1015.7
20260901012005 63 152 3.5 5.2 0.00 0.00 0.00 86 1015.4
20260901011505 63 145 2.6 5.2 0.00 0.00 0.00 86 1015.4
20260901011005 63 143 1.7 5.2 0.00 0.00 0.00 86 1015.3
20260901010504 63 134 1.7 5.2 0.00 0.00 0.00 86 1015.3
20260901010004 63 130 2.6 5.2 0.00 0.00 0.00 86 1015.2
20260901005505 63 137 3.5 3.5 0.00 0.00 0.00 86 1015.2
20260901005005 63 147 1.7 3.5 0.00 0.00 0.00 86 1015.4
20260901004505 63 149 2.6 3.5 0.00 0.00 0.00 86 1015.3
20260901004005 63 143 1.7 6.1 0.00 0.00 0.00 86 1015.2
20260901003504 63 144 1.7 6.1 0.00 0.00 0.00 86 1015.2
20260901003004 63 152 1.7 3.5 0.00 0.00 0.00 86 1015.2
20260901002504 63 142 1.7 3.5 0.00 0.00 0.00 86 1015.1
20260901002005 63 137 1.7 6.1 0.00 0.00 0.00 86 1015.0
20260901001505 63 133 1.7 6.1 0.00 0.00 0.00 86 1014.7
20260901001004 63 123 2.6 7.8 0.00 0.00 0.00 86 1014.6
20260901000504 63 124 2.6 7.8 0.00 0.00 0.00 86 1014.6
20260901000005 63 139 3.5 7.0 0.00 0.00 0.00 86 1014.5
20260831235005 63 133 2.6 6.1 0.00 0.00 0.00 86 1014.1
20260831234505 64 135 3.5 7.8 0.00 0.00 0.00 86 1014.1
20260831234005 64 136 3.5 9.6 0.00 0.00 0.00 86 1014.1
20260831233504 64 132 4.3 9.6 0.00 0.00 0.00 86 1013.9
20260831233005 64 124 4.3 9.6 0.00 0.00 0.00 86 1013.6
20260831232505 64 136 3.5 9.6 0.00 0.00 0.00 86 1013.9
20260831232005 64 145 3.5 7.8 0.00 0.00 0.00 87 1013.8
20260831231005 64 146 4.3 7.8 0.00 0.00 0.00 87 1014.0
20260831230505 64 139 3.5 7.0 0.00 0.00 0.00 87 1013.6
20260831230005 64 132 3.5 6.1 0.00 0.00 0.00 88 1013.7
20260831225504 64 145 1.7 6.1 0.00 0.00 0.00 88 1013.6
20260831225004 64 146 1.7 5.2 0.00 0.00 0.00 88 1013.6
20260831224505 64 148 1.7 6.1 0.00 0.00 0.00 88 1013.5
20260831224005 64 148 3.5 6.1 0.00 0.00 0.00 88 1013.4
20260831222505 64 170 1.7 7.8 0.00 0.00 0.00 88 1013.1
20260831221504 64 176 1.7 7.0 0.00 0.00 0.00 88 1012.9
20260831221005 64 176 1.7 7.0 0.00 0.00 0.00 88 1012.9
20260831220505 64 184 3.5 7.0 0.00 0.00 0.00 88 1012.6
20260831220004 64 174 1.7 7.8 0.00 0.00 0.00 88 1012.7
20260831215504 64 163 2.6 7.8 0.00 0.00 0.00 88 1012.4
20260831215004 65 167 4.3 7.0 0.00 0.00 0.00 86 1012.4
20260831214505 65 173 1.7 6.1 0.00 0.00 0.00 86 1012.5
20260831213504 65 175 2.6 5.2 0.00 0.00 0.00 86 1012.2
20260831213005 65 171 1.7 5.2 0.00 0.00 0.00 86 1012.2
20260831212004 65 213 1.7 5.2 0.00 0.00 0.00 86 1011.9
20260831211504 65 201 1.7 6.1 0.00 0.00 0.00 86 1012.0
20260831211004 64 197 3.5 6.1 0.00 0.00 0.00 86 1012.1
20260831210004 64 202 2.6 7.0 0.00 0.00 0.00 85 1011.8
20260831205005 64 187 4.3 7.8 0.00 0.00 0.00 85 1011.9
20260831204505 64 185 3.5 7.8 0.00 0.00 0.00 85 1011.9
20260831203005 64 215 5.2 9.6 0.00 0.00 0.00 85 1011.7
20260831202504 64 206 3.5 9.6 0.00 0.00 0.00 85 1011.6
20260831202004 64 196 3.5 9.6 0.00 0.00 0.00 86 1011.6
20260831201505 64 206 3.5 9.6 0.00 0.00 0.00 85 1011.4
20260831201005 64 204 4.3 9.6 0.00 0.00 0.00 85 1011.4
20260831195505 65 198 6.1 9.6 0.00 0.00 0.00 85 1011.1
20260831195004 65 198 3.5 7.8 0.00 0.00 0.00 84 1011.1
20260831194005 65 189 4.3 7.8 0.00 0.00 0.00 83 1010.8
20260831193004 66 184 1.7 7.8 0.00 0.00 0.00 83 1010.8